Change the Weather History Date:

Friday, July 5, 2013

  Actual Average Record
Temperature  
Mean Temperature 75 °F -  
Max Temperature 84 °F 75 °F 87 °F (1996)
Min Temperature 66 °F 54 °F 46 °F (2001)
Cooling Degree Days 10    
Growing Degree Days 25 (Base 50)    
Moisture  
Dew Point 59 °F    
Average Humidity 58    
Maximum Humidity 94    
Minimum Humidity 42    
Precipitation  
Precipitation 0.00 in - - ()
Sea Level Pressure  
Sea Level Pressure 29.79 in    
Wind  
Wind Speed 9 mph (South)    
Max Wind Speed 16 mph    
Max Gust Speed 22 mph    
Visibility 10 miles    
Events      
Averages and records for this station are not official NWS values.
T = Trace of Precipitation, MM = Missing Value Source: NWS Daily Summary

Daily Weather History Graph

Daily Weather History Graph

Search for Another Location

Airport or City:

Trip Planner

Search our weather history database for the weather conditions in past years. The results will help you decide how hot, cold, wet, or windy it might be!

Date:

Astronomy

Jul. 05, 2013 Rise Set
Actual Time 5:33 AM CDT 9:13 PM CDT
Civil Twilight 4:55 AM CDT 9:52 PM CDT
Nautical Twilight 4:03 AM CDT 10:43 PM CDT
Astronomical Twilight 2:52 AM CDT 11:53 PM CDT
Moon 3:37 AM CDT (7/5) 7:06 PM CDT (7/5)
Length of Visible Light 16h 57m
Length of Day
15h 40m
Waning Crescent, 6% of the Moon is Illuminated
Jul 5
Waning Crescent
Jul 8
New
Jul 15
First Quarter
Jul 22
Full
Jul 29
Last Quarter

Hourly Weather History & Observations

Time (CDT) Temp. Heat Index Dew Point Humidity Pressure Visibility Wind Dir Wind Speed Gust Speed Precip Events Conditions
12:13 AM 71.6 °F - 55.4 °F 57% 29.82 in 10.0 mi South 8.1 mph - N/A   Clear
12:34 AM 71.6 °F - 57.2 °F 60% 29.82 in 10.0 mi South 9.2 mph - N/A   Clear
12:53 AM 71.6 °F - 57.2 °F 60% 29.81 in 10.0 mi South 9.2 mph - N/A   Clear
1:13 AM 71.6 °F - 57.2 °F 60% 29.81 in 10.0 mi South 10.4 mph 16.1 mph N/A   Clear
1:34 AM 71.6 °F - 57.2 °F 60% 29.81 in 10.0 mi South 10.4 mph - N/A   Clear
1:53 AM 71.6 °F - 57.2 °F 60% 29.81 in 10.0 mi South 10.4 mph - N/A   Clear
2:13 AM 71.6 °F - 57.2 °F 60% 29.81 in 10.0 mi South 11.5 mph - N/A   Clear
2:34 AM 69.8 °F - 57.2 °F 64% 29.81 in 10.0 mi South 10.4 mph - N/A   Clear
2:53 AM 69.8 °F - 55.4 °F 60% 29.82 in 10.0 mi South 10.4 mph - N/A   Clear
3:13 AM 69.8 °F - 55.4 °F 60% 29.82 in 10.0 mi South 8.1 mph - N/A   Clear
3:34 AM 69.8 °F - 55.4 °F 60% 29.82 in 10.0 mi South 8.1 mph - N/A   Clear
3:53 AM 69.8 °F - 55.4 °F 60% 29.82 in 10.0 mi South 8.1 mph - N/A   Clear
4:13 AM 68.0 °F - 55.4 °F 64% 29.82 in 10.0 mi South 8.1 mph - N/A   Clear
4:34 AM 69.8 °F - 55.4 °F 60% 29.81 in 10.0 mi South 8.1 mph - N/A   Clear
4:53 AM 68.0 °F - 55.4 °F 64% 29.81 in 10.0 mi South 8.1 mph - N/A   Clear
5:13 AM 68.0 °F - 55.4 °F 64% 29.81 in 10.0 mi South 9.2 mph - N/A   Clear
5:33 AM 68.0 °F - 55.4 °F 64% 29.81 in 10.0 mi South 10.4 mph - N/A   Clear
5:53 AM 68.0 °F - 55.4 °F 64% 29.81 in 10.0 mi South 10.4 mph - N/A   Clear
6:14 AM 68.0 °F - 55.4 °F 64% 29.80 in 10.0 mi South 9.2 mph - N/A   Clear
6:33 AM 69.8 °F - 55.4 °F 60% 29.80 in 10.0 mi South 11.5 mph - N/A   Clear
6:53 AM 68.0 °F - 55.4 °F 64% 29.79 in 10.0 mi South 12.7 mph 18.4 mph N/A   Clear
7:14 AM 69.8 °F - 55.4 °F 60% 29.80 in 10.0 mi South 12.7 mph - N/A   Clear
7:33 AM 69.8 °F - 55.4 °F 60% 29.80 in 10.0 mi South 11.5 mph 18.4 mph N/A   Clear
7:53 AM 71.6 °F - 55.4 °F 57% 29.80 in 10.0 mi South 11.5 mph 19.6 mph N/A   Clear
8:14 AM 71.6 °F - 55.4 °F 57% 29.80 in 10.0 mi South 15.0 mph 19.6 mph N/A   Clear
8:33 AM 71.6 °F - 55.4 °F 57% 29.80 in 10.0 mi South 12.7 mph 17.3 mph N/A   Clear
8:53 AM 71.6 °F - 55.4 °F 57% 29.80 in 10.0 mi South 16.1 mph 20.7 mph N/A   Clear
9:14 AM 73.4 °F - 57.2 °F 57% 29.81 in 10.0 mi South 15.0 mph 19.6 mph N/A   Clear
9:33 AM 73.4 °F - 57.2 °F 57% 29.81 in 10.0 mi South 11.5 mph 18.4 mph N/A   Clear
9:53 AM 75.2 °F - 57.2 °F 53% 29.81 in 10.0 mi South 11.5 mph - N/A   Clear
10:14 AM 75.2 °F - 57.2 °F 53% 29.80 in 10.0 mi SSW 10.4 mph 18.4 mph N/A   Clear
10:33 AM 75.2 °F - 57.2 °F 53% 29.80 in 10.0 mi South 11.5 mph - N/A   Clear
10:53 AM 78.8 °F - 57.2 °F 47% 29.80 in 10.0 mi South 11.5 mph 17.3 mph N/A   Clear
11:14 AM 78.8 °F - 59.0 °F 51% 29.80 in 10.0 mi South 10.4 mph - N/A   Clear
11:33 AM 80.6 °F 80.8 °F 57.2 °F 45% 29.80 in 10.0 mi SSW 10.4 mph 16.1 mph N/A   Clear
11:53 AM 78.8 °F - 57.2 °F 47% 29.80 in 10.0 mi South 13.8 mph 18.4 mph N/A   Clear
12:14 PM 80.6 °F 81.1 °F 59.0 °F 48% 29.80 in 10.0 mi South 10.4 mph 17.3 mph N/A   Clear
12:33 PM 80.6 °F 81.1 °F 59.0 °F 48% 29.80 in 10.0 mi SSE 11.5 mph 16.1 mph N/A   Clear
12:53 PM 82.4 °F 82.5 °F 59.0 °F 45% 29.80 in 10.0 mi SSW 10.4 mph 16.1 mph N/A   Clear
1:13 PM 82.4 °F 82.5 °F 59.0 °F 45% 29.79 in 10.0 mi South 11.5 mph 17.3 mph N/A   Clear
1:33 PM 82.4 °F 82.9 °F 60.8 °F 48% 29.79 in 10.0 mi South 9.2 mph 17.3 mph N/A   Clear
1:54 PM 84.2 °F 83.8 °F 59.0 °F 42% 29.79 in 10.0 mi South 9.2 mph - N/A   Clear
2:14 PM 84.2 °F 83.8 °F 59.0 °F 42% 29.78 in 10.0 mi South 13.8 mph 18.4 mph N/A   Clear
2:33 PM 84.2 °F 84.4 °F 60.8 °F 45% 29.78 in 10.0 mi South 16.1 mph 21.9 mph N/A   Clear
2:54 PM 84.2 °F 84.4 °F 60.8 °F 45% 29.78 in 10.0 mi South 13.8 mph 19.6 mph N/A   Clear
3:13 PM 84.2 °F 84.4 °F 60.8 °F 45% 29.78 in 10.0 mi SSE 16.1 mph 19.6 mph N/A   Scattered Clouds
3:33 PM 84.2 °F 84.4 °F 60.8 °F 45% 29.78 in 10.0 mi SSW 11.5 mph 17.3 mph N/A   Scattered Clouds
3:54 PM 82.4 °F 82.9 °F 60.8 °F 48% 29.77 in 10.0 mi South 11.5 mph - N/A   Mostly Cloudy
4:13 PM 82.4 °F 83.4 °F 62.6 °F 51% 29.77 in 10.0 mi South 9.2 mph - N/A   Overcast
4:33 PM 82.4 °F 83.4 °F 62.6 °F 51% 29.78 in 10.0 mi South 9.2 mph - N/A   Overcast
4:54 PM 82.4 °F 83.4 °F 62.6 °F 51% 29.77 in 10.0 mi South 6.9 mph - N/A   Overcast
5:13 PM 82.4 °F 83.9 °F 64.4 °F 54% 29.77 in 10.0 mi South 9.2 mph - N/A   Mostly Cloudy
5:33 PM 84.2 °F 85.6 °F 64.4 °F 51% 29.77 in 10.0 mi South 8.1 mph - N/A   Mostly Cloudy
5:54 PM 84.2 °F 85.0 °F 62.6 °F 48% 29.76 in 10.0 mi SSW 8.1 mph - N/A   Scattered Clouds
6:13 PM 84.2 °F 85.0 °F 62.6 °F 48% 29.76 in 10.0 mi SSW 6.9 mph - N/A   Mostly Cloudy
6:33 PM 84.2 °F 85.6 °F 64.4 °F 51% 29.76 in 10.0 mi SSW 4.6 mph - N/A   Mostly Cloudy
6:54 PM 84.2 °F 85.6 °F 64.4 °F 51% 29.77 in 10.0 mi SW 6.9 mph - N/A   Scattered Clouds
7:13 PM 82.4 °F 83.4 °F 62.6 °F 51% 29.77 in 10.0 mi SW 8.1 mph - N/A   Clear
7:33 PM 82.4 °F 83.4 °F 62.6 °F 51% 29.77 in 10.0 mi SW 8.1 mph - N/A   Clear
7:54 PM 80.6 °F 82.3 °F 64.4 °F 58% 29.78 in 10.0 mi WSW 5.8 mph - N/A   Clear
8:13 PM 80.6 °F 82.3 °F 64.4 °F 58% 29.78 in 10.0 mi WSW 8.1 mph - N/A   Clear
8:33 PM 78.8 °F - 64.4 °F 61% 29.78 in 10.0 mi WSW 4.6 mph - N/A   Clear
8:54 PM 77.0 °F - 64.4 °F 65% 29.78 in 10.0 mi SW 3.5 mph - N/A   Clear
9:13 PM 75.2 °F - 64.4 °F 69% 29.78 in 10.0 mi SW 3.5 mph - N/A   Clear
9:33 PM 73.4 °F - 64.4 °F 73% 29.78 in 10.0 mi SSW 3.5 mph - N/A   Clear
9:54 PM 71.6 °F - 64.4 °F 78% 29.79 in 10.0 mi Calm Calm - N/A   Clear
10:13 PM 73.4 °F - 64.4 °F 73% 29.79 in 10.0 mi Calm Calm - N/A   Clear
10:33 PM 71.6 °F - 64.4 °F 78% 29.80 in 10.0 mi Calm Calm - N/A   Clear
10:53 PM 71.6 °F - 64.4 °F 78% 29.80 in 10.0 mi Calm Calm - N/A   Clear
11:13 PM 69.8 °F - 64.4 °F 83% 29.80 in 10.0 mi Calm Calm - N/A   Clear
11:33 PM 66.2 °F - 64.4 °F 94% 29.81 in 10.0 mi Calm Calm - N/A   Clear
11:53 PM 68.0 °F - 64.4 °F 88% 29.81 in 10.0 mi Calm Calm - N/A   Clear